Hourly Weather Volendam

Today, 1 October, Thursday

Time Temperature Precipitation Wind Pressure Humidity
00:00 +15°C° 0 mm 5 mps 754 mmHg 89%
01:00 +15°C° 0 mm 5 mps 753 mmHg 89%
02:00 +14°C° 0 mm 5 mps 752 mmHg 90%
03:00 +14°C° 0 mm 6 mps 751 mmHg 90%
04:00 +14°C° 0 mm 6 mps 751 mmHg 90%
05:00 +14°C° 0 mm 6 mps 751 mmHg 89%
06:00 +14°C° 0 mm 6 mps 750 mmHg 89%
07:00 +14°C° 0.1 mm 6 mps 750 mmHg 87%
08:00 +14°C° 0.1 mm 7 mps 749 mmHg 85%
09:00 +15°C° 0.1 mm 7 mps 749 mmHg 83%
10:00 +14°C° 0.6 mm 7 mps 748 mmHg 86%
11:00 +14°C° 0.6 mm 7 mps 748 mmHg 88%
12:00 +14°C° 0.6 mm 7 mps 748 mmHg 90%
13:00 +14°C° 0.9 mm 7 mps 748 mmHg 91%
14:00 +14°C° 0.9 mm 7 mps 747 mmHg 91%
15:00 +14°C° 0.9 mm 7 mps 747 mmHg 91%
16:00 +13°C° 0.5 mm 6 mps 747 mmHg 90%
17:00 +13°C° 0.5 mm 5 mps 747 mmHg 88%
18:00 +12°C° 0.5 mm 4 mps 748 mmHg 87%
19:00 +12°C° 0.1 mm 4 mps 748 mmHg 88%
20:00 +11°C° 0.1 mm 4 mps 748 mmHg 89%
21:00 +11°C° 0.1 mm 4 mps 748 mmHg 90%
22:00 +10°C° 0 mm 4 mps 748 mmHg 89%
23:00 +10°C° 0 mm 4 mps 748 mmHg 88%

Tomorrow, 2 October, Friday

Time Temperature Precipitation Wind Pressure Humidity
00:00 +10°C° 0 mm 4 mps 748 mmHg 87%
01:00 +9°C° 0 mm 3 mps 748 mmHg 87%
02:00 +9°C° 0 mm 3 mps 748 mmHg 88%
03:00 +8°C° 0 mm 3 mps 747 mmHg 89%
04:00 +8°C° 0 mm 3 mps 747 mmHg 89%
05:00 +7°C° 0 mm 4 mps 747 mmHg 90%
06:00 +7°C° 0 mm 4 mps 747 mmHg 91%
07:00 +9°C° 0 mm 5 mps 747 mmHg 86%
08:00 +10°C° 0 mm 5 mps 747 mmHg 81%
09:00 +13°C° 0 mm 6 mps 747 mmHg 77%
10:00 +14°C° 0 mm 6 mps 747 mmHg 73%
11:00 +15°C° 0 mm 6 mps 747 mmHg 69%
12:00 +16°C° 0 mm 7 mps 747 mmHg 64%
13:00 +16°C° 0 mm 6 mps 746 mmHg 66%
14:00 +16°C° 0 mm 6 mps 746 mmHg 67%
15:00 +16°C° 0 mm 6 mps 746 mmHg 69%
16:00 +16°C° 0 mm 6 mps 746 mmHg 71%
17:00 +15°C° 0 mm 7 mps 745 mmHg 73%
18:00 +14°C° 0 mm 7 mps 745 mmHg 75%
19:00 +15°C° 0 mm 7 mps 745 mmHg 75%
20:00 +15°C° 0 mm 8 mps 745 mmHg 75%
21:00 +15°C° 0 mm 8 mps 745 mmHg 75%
22:00 +15°C° 0 mm 8 mps 744 mmHg 79%
23:00 +13°C° 0 mm 8 mps 744 mmHg 83%

Day after tomorrow, 3 October, Saturday

Time Temperature Precipitation Wind Pressure Humidity
00:00 +13°C° 0 mm 8 mps 743 mmHg 87%
01:00 +12°C° 0 mm 9 mps 743 mmHg 87%
02:00 +12°C° 0 mm 9 mps 742 mmHg 86%
03:00 +12°C° 0 mm 9 mps 742 mmHg 86%
04:00 +12°C° 0 mm 8 mps 742 mmHg 85%
05:00 +12°C° 0 mm 8 mps 741 mmHg 85%
06:00 +12°C° 0 mm 7 mps 741 mmHg 85%
07:00 +12°C° 0 mm 7 mps 741 mmHg 84%
08:00 +14°C° 0 mm 6 mps 741 mmHg 83%
09:00 +14°C° 0 mm 6 mps 741 mmHg 83%
10:00 +15°C° 0 mm 6 mps 740 mmHg 81%
11:00 +15°C° 0 mm 5 mps 740 mmHg 80%
12:00 +16°C° 0 mm 5 mps 740 mmHg 78%
13:00 +15°C° 0.5 mm 6 mps 740 mmHg 82%
14:00 +14°C° 0.5 mm 6 mps 740 mmHg 86%
15:00 +12°C° 0.5 mm 7 mps 739 mmHg 90%
16:00 +11°C° 0.5 mm 6 mps 739 mmHg 90%
17:00 +12°C° 0.5 mm 5 mps 739 mmHg 90%
18:00 +10°C° 0.5 mm 5 mps 739 mmHg 90%
19:00 +10°C° 0 mm 5 mps 739 mmHg 89%
20:00 +10°C° 0 mm 6 mps 739 mmHg 87%
21:00 +10°C° 0 mm 6 mps 739 mmHg 86%
22:00 +9°C° 0 mm 6 mps 739 mmHg 86%
23:00 +9°C° 0 mm 6 mps 738 mmHg 85%

4 October, Sunday

Time Temperature Precipitation Wind Pressure Humidity
00:00 +9°C° 0 mm 7 mps 738 mmHg 85%
01:00 +10°C° 0.1 mm 7 mps 737 mmHg 85%
02:00 +10°C° 0.1 mm 7 mps 736 mmHg 85%
03:00 +10°C° 0.1 mm 7 mps 736 mmHg 86%
04:00 +10°C° 0.1 mm 7 mps 736 mmHg 87%
05:00 +10°C° 0.1 mm 7 mps 735 mmHg 87%
06:00 +9°C° 0.1 mm 7 mps 735 mmHg 88%
07:00 +8°C° 1.1 mm 9 mps 736 mmHg 88%
08:00 +9°C° 1.1 mm 10 mps 736 mmHg 88%
09:00 +9°C° 1.1 mm 11 mps 737 mmHg 87%
10:00 +9°C° 0.7 mm 11 mps 738 mmHg 83%
11:00 +9°C° 0.7 mm 11 mps 739 mmHg 79%
12:00 +10°C° 0.7 mm 12 mps 740 mmHg 75%
13:00 +11°C° 0 mm 11 mps 740 mmHg 72%
14:00 +12°C° 0 mm 10 mps 741 mmHg 68%
15:00 +13°C° 0 mm 10 mps 741 mmHg 65%
16:00 +12°C° 0 mm 9 mps 741 mmHg 68%
17:00 +11°C° 0 mm 9 mps 742 mmHg 70%
18:00 +11°C° 0 mm 9 mps 742 mmHg 73%
19:00 +11°C° 0 mm 9 mps 742 mmHg 74%
20:00 +10°C° 0 mm 9 mps 743 mmHg 74%
21:00 +10°C° 0 mm 9 mps 743 mmHg 75%
22:00 +10°C° 0 mm 9 mps 743 mmHg 74%
23:00 +10°C° 0 mm 8 mps 744 mmHg 73%

5 October, Monday

Time Temperature Precipitation Wind Pressure Humidity
00:00 +10°C° 0 mm 8 mps 744 mmHg 72%
01:00 +10°C° 0 mm 8 mps 744 mmHg 72%
02:00 +10°C° 0 mm 8 mps 744 mmHg 71%
03:00 +10°C° 0 mm 9 mps 744 mmHg 71%
04:00 +10°C° 0 mm 9 mps 745 mmHg 72%
05:00 +8°C° 0 mm 9 mps 745 mmHg 73%
06:00 +8°C° 0 mm 9 mps 745 mmHg 74%
07:00 +10°C° 0 mm 9 mps 745 mmHg 74%
08:00 +10°C° 0 mm 9 mps 745 mmHg 73%
09:00 +10°C° 0 mm 9 mps 745 mmHg 73%
10:00 +11°C° 0 mm 9 mps 745 mmHg 72%
11:00 +11°C° 0 mm 9 mps 745 mmHg 72%
12:00 +11°C° 0 mm 9 mps 744 mmHg 71%
13:00 +11°C° 1 mm 9 mps 744 mmHg 77%
14:00 +9°C° 1 mm 10 mps 743 mmHg 83%
15:00 +9°C° 1 mm 10 mps 743 mmHg 89%
16:00 +10°C° 0.9 mm 9 mps 743 mmHg 90%
17:00 +11°C° 0.9 mm 8 mps 742 mmHg 91%
18:00 +11°C° 0.9 mm 8 mps 742 mmHg 92%
19:00 +11°C° 0.5 mm 8 mps 743 mmHg 88%
20:00 +12°C° 0.5 mm 9 mps 743 mmHg 85%
21:00 +12°C° 0.5 mm 10 mps 743 mmHg 82%
22:00 +12°C° 0.2 mm 9 mps 744 mmHg 83%
23:00 +11°C° 0.2 mm 9 mps 744 mmHg 84%

6 October, Tuesday

Time Temperature Precipitation Wind Pressure Humidity
00:00 +11°C° 0.2 mm 8 mps 745 mmHg 86%
01:00 +11°C° 0.3 mm 8 mps 745 mmHg 85%
02:00 +11°C° 0.3 mm 8 mps 746 mmHg 85%
03:00 +11°C° 0.3 mm 8 mps 746 mmHg 85%
04:00 +11°C° 0.3 mm 7 mps 747 mmHg 85%
05:00 +11°C° 0.3 mm 7 mps 747 mmHg 85%
06:00 +11°C° 0.3 mm 7 mps 748 mmHg 84%
07:00 +12°C° 0.3 mm 8 mps 749 mmHg 83%
08:00 +12°C° 0.3 mm 8 mps 749 mmHg 81%
09:00 +13°C° 0.3 mm 8 mps 750 mmHg 79%
10:00 +13°C° 0.3 mm 8 mps 750 mmHg 77%
11:00 +13°C° 0.3 mm 8 mps 751 mmHg 75%
12:00 +15°C° 0.3 mm 8 mps 751 mmHg 73%
13:00 +13°C° 0.2 mm 8 mps 751 mmHg 73%
14:00 +14°C° 0.2 mm 7 mps 752 mmHg 74%
15:00 +14°C° 0.2 mm 6 mps 752 mmHg 74%
16:00 +13°C° 0.1 mm 6 mps 752 mmHg 77%
17:00 +12°C° 0.1 mm 5 mps 752 mmHg 80%
18:00 +10°C° 0.1 mm 5 mps 753 mmHg 83%
19:00 +10°C° 0.1 mm 5 mps 753 mmHg 83%
20:00 +10°C° 0.1 mm 5 mps 753 mmHg 84%
21:00 +10°C° 0.1 mm 4 mps 753 mmHg 85%
22:00 +10°C° 0 mm 4 mps 753 mmHg 86%
23:00 +10°C° 0 mm 4 mps 753 mmHg 88%
Show more

We Need Your Consent

Meteoprog and our Service Providers may store and access personal data such as cookies, device identifiers or other similar technologies on your device and process such data to personalise content and ads, as well as provide social media features and to analyse the traffic.

  • Store and/or access information on your device

    Cookies, device identifiers or other information can be stored or accessed on your device for the purposes indicated above.

  • Personalised ads and content, ad and content measurement, audience insights, and products development

    Ads and content can be personalised based on a profile. More data can be added to better personalise ads and content. Ad and content performance can be measured. Insights about the audience who saw the ads and content can be derived. Such data can be used to develop or improve user’s experience, systems and software.

By clicking ‘I Agree’ you will allow the use of indicated cookies, device identifiers, web beacons or other similar technologies. Your settings can be changed in the browser on your device.

For certain purposes, legitimate interests may be relied on, rather than consent. You can read more about this in our Privacy and Cookie Policy.